Regional Weather Roundup
Issued by NWS

Home | Current Version | Previous Version | Graphics & Text | Print | Product List | Glossary On
Versions: 1 2 3 4 5 6 7 8 9 10 11 12 13 14 15 16 17 18 19 20 21 22 23 24 25 26 27 28 29 30 31 32 33 34 35 36 37 38 39 40 41 42 43 44 45 46 47 48 49 50
000
ASUS45 KBOU 052207
RWRCO

WEATHER ROUNDUP FOR COLORADO
NATIONAL WEATHER SERVICE DENVER/BOULDER CO
300 PM MST MON DEC 05 2016

NOTE: "FAIR" INDICATES FEW OR NO CLOUDS BELOW 12000 FEET WITH NO
SIGNIFICANT WEATHER AND/OR OBSTRUCTIONS TO VISIBILITY.

COZ001>005-013-030-031-052300-
...NORTHWEST COLORADO...

CITY           SKY/WX    TMP DP  RH WIND       PRES   REMARKS
CRAIG          CLOUDY    23  -2  33 NW15G21   29.92R WCI  10
HAYDEN         CLOUDY    18   0  45 W17G23    29.89R WCI   2
MEEKER         CLOUDY    23  13  65 N21       29.86R WCI   8
MOUNT WERNER   NOT AVBL
STEAMBOAT SPGS CLOUDY    15  10  81 W3        29.88R
WALDEN           N/A     14   5  67 NW10      29.77S WCI   1
$$

COZ006>008-011-052300-
...WEST CENTRAL VALLEYS...

CITY           SKY/WX    TMP DP  RH WIND       PRES   REMARKS
GRAND JUNCTION FAIR      43  19  38 N14       29.81F
MONTROSE       FAIR      45  16  31 W6        29.82S
EAGLE          PTSUNNY   36  19  51 NW17G30   29.75R
RIFLE          CLOUDY    38  19  46 NW18G29   29.81R
DELTA          NOT AVBL
NUCLA          FAIR      45  18  33 N12       29.86S
$$

COZ017>023-064>068-052300-
...SOUTHWEST COLORADO...

CITY           SKY/WX    TMP DP  RH WIND       PRES   REMARKS
DURANGO        FAIR      46  13  26 W20G28    29.79S
CORTEZ         FAIR      46  17  31 W9        29.85S
PAGOSA SPRINGS FAIR      42  15  34 SW6       29.81S
TELLURIDE      FAIR      33  10  38 W12G21    29.88R WCI  24
WOLF CREEK PAS FAIR      21  14  73 SW15      29.88R WCI   8
$$

COZ009-010-012-014-032>034-037-058>063-052300-
...CENTRAL COLORADO...

CITY           SKY/WX    TMP DP  RH WIND       PRES   REMARKS
ASPEN          PTSUNNY   37   4  25 NW14G30   29.71R
BUENA VISTA    PTSUNNY   37   3  24 SW12G25   29.72R
COPPER MTN     NOT AVBL
BERTHOUD PASS  SNOW       5  -6  61 W25G43    29.60F VSB<1/4 WCI -18
COTTONWOOD PAS PTSUNNY   32   1  27 W21G39    29.71S WCI  20
GUNNISON       MIX PCPN  36  14  40 W15G22    29.78S
KREMMLING      CLOUDY    23   7  50 NW8G17    29.80R WCI  14
LEADVILLE      CLOUDY    24   4  42 NW13G23   29.68F WCI  12
MONARCH PASS   LGT SNOW  18   5  57 W55G72    29.81R WCI  -7
SALIDA         CLOUDY    44   6  21 W17G28    29.80S
SUNLIGHT       CLOUDY    18  14  86 W15G29    29.78R WCI   3
WILKERSON PASS PTSUNNY   27   9  46 S12G24    29.72S WCI  16
$$

COZ069>075-052300-
...SAN LUIS VALLEY/SANGRE DE CRISTO MOUNTAINS...

CITY           SKY/WX    TMP DP  RH WIND       PRES   REMARKS
ALAMOSA        FAIR      45  14  28 NW7       29.72F
LA VETA PASS   FAIR      34  14  44 N20G33    29.75S WCI  22
SAGUACHE       FAIR      41  10  28 NW25G36   29.75R
$$

COZ035-036-038>040-052300-
...NORTHERN COLORADO FRONT RANGE...

CITY           SKY/WX    TMP DP  RH WIND       PRES   REMARKS
DENVER INTL AP FAIR      38  10  31 N21G28    29.63R
DMNS CITY PARK   N/A     49   7  17 W14G24    29.63R
AURORA         MOSUNNY   50   8  18 W14       29.63R
FRONT RANGE AP MOSUNNY   54  10  17 N23G30    29.65R
ERIE MUNI ARPT FAIR      44  17  34 W23G31    29.65R
BOULDER MUN AP FAIR      41  18  38 W16G26    29.66R
CENTENNIAL     FAIR      49   3  15 W15G30    29.63R
BROOMFIELD     MOSUNNY   45  19  36 W20G29    29.64R
FORT COLLINS   FAIR      34   7  32 NW37G48   29.69R WCI  19
LONGMONT       FAIR      47  18  31 SW21G26   29.67R
$$

COZ041-046-047-076>085-087-088-052300-
...PIKES PEAK/PALMER DIVIDE AND SOUTHERN FOOTHILLS...

CITY           SKY/WX    TMP DP  RH WIND       PRES   REMARKS
COLO. SPRINGS  FAIR      52  -4  10 W22G30    29.64R
A. F. ACADEMY  FAIR      48   1  14 SW15G29   29.65R
SCHRIEVER AFB  NOT AVBL
ELLICOTT       FAIR     N/A N/A N/A NW28G35   29.63R
FALCON         FAIR      48  -2  12 W22G37    29.67R
FORT CARSON    FAIR      53   6  14 SW21G28   29.62R
LIMON          FAIR      48  15  26 NE23G31   29.63R
MONUMENT HILL  FAIR      45   5  19 W21G31    29.67R
TRINIDAD       FAIR      61   5  10 N14       29.59S
$$

COZ042>045-048>051-090-091-052300-
...NORTHEAST COLORADO...

CITY           SKY/WX    TMP DP  RH WIND       PRES   REMARKS
GREELEY ARPT   FAIR      34   4  28 NW51G58   29.63R WCI  17
AKRON          FAIR      38   2  22 NW38G48   29.67R
BURLINGTON     CLOUDY    51  20  29 N25G39    29.63R
WRAY           NOT AVBL
STERLING       FAIR      39  -4  16 N32G54    29.68R
HOLYOKE        FAIR      45   0  15 NW28G41   29.69R
FORT MORGAN    FAIR      38  -3  18 NW40G53   29.68R
$$

COZ086-089-092>099-052300-
...SOUTHEAST COLORADO...

CITY           SKY/WX    TMP DP  RH WIND       PRES   REMARKS
PUEBLO         FAIR      59   3  10 W33G46    29.59S
LA JUNTA       FAIR      63   7  11 NW30G45   29.57R
LAMAR          FAIR      67  10  11 W26G33    29.52R
SPRINGFIELD      N/A     63  17  17 NW15      29.56R
$$



USA.gov is the U.S. government's official web portal to all federal, state and local government web resources and services.